SCP
0 0 0 0 0 0 0 0 0 0 0 0 0 0 0 0 0 0 0 0 0 0 0 0 0 0 0 0 0 0 0 0 0 0 0 0 0 0 0 0 0 0 0 0 0 0 0 0 0 0 0 0 0 0
0 0 0 0 0 0 0 0 0 0 0 0 0 0 0 0 0 0 0 0 0 0 0 0 0 0 0 0 0 0 0 0 0 0 0 0 0 0 0 0 0 0 0 0 0 0 0 0 0 0 0 0 0 0
0 0 0 0 0 0 0 0 0 0 0 0 0 0 0 0 0 0 0 0 0 0 0 0 0 0 0 0 0 0 0 0 0 0 0 0 0 0 0 0 0 0 0 0 0 0 0 0 0 0 0 0 0 0
0 0 0 0 0 0 0 0 0 0 0 0 0 0 0 0 0 0 0 0 0 0 0 0 0 0 0 0 0 0 0 0 0 0 0 0 0 0 0 0 0 0 0 0 0 0 0 0 0 0 0 0 0 0
0 0 0 0 0 0 0 0 0 0 0 0 0 0 0 0 0 0 0 0 0 0 0 0 0 0 0 0 0 0 0 0 0 0 0 0 0 0 0 0 0 0 0 0 0 0 0 0 0 0 0 0 0 0
0 0 0 0 0 0 0 0 0 0 0 0 0 0 0 0 0 0 0 0 0 0 0 0 0 0 0 0 0 0 0 0 0 0 0 0 0 0 0 0 0 0 0 0 0 0 0 0 0 0 0 0 0 0
0 0 0 0 0 0 0 0 0 0 0 0 0 0 0 0 0 0 0 0 0 0 0 0 0 0 0 0 0 0 0 0 0 0 0 0 0 0 0 0 0 0 0 0 0 0 0 0 0 0 0 0 0 0
0 0 0 0 0 0 0 0 0 0 0 0 0 0 0 0 0 0 0 0 0 0 0 0 0 0 0 0 0 0 0 0 0 0 0 0 0 0 0 0 0 0 0 0 0 0 0 0 0 0 0 0 0 0
0 0 0 0 0 0 0 0 0 0 0 0 0 0 0 0 0 0 0 0 0 0 0 0 0 0 0 0 0 0 0 0 0 0 0 0 0 0 0 0 0 0 0 0 0 0 0 0 0 0 0 0 0 0
0 0 0 0 0 0 0 0 0 0 0 0 0 0 0 0 0 0 0 0 0 0 0 0 0 0 0 0 0 0 0 0 0 0 0 0 0 0 0 0 0 0 0 -0 -0 0 0 0 0 0 0 0 0 0
0 0 0 0 0 0 0 0 0 0 0 0 0 0 0 0 0 0 0 0 0 0 0 0 0 0 0 0 0 0 0 0 0 0 0 0 0 0 -0 -0 0 -0 -0 -0 0 0 0 0 0 0 0 0 0 0
0 0 0 0 0 0 0 0 0 0 0 0 0 0 0 0 0 0 0 0 0 0 0 0 0 0 0 0 0 0 0 0 0 0 0 0 0 0 0 0 0 -0 -0 -0 0 0 0 0 0 -0 0 0 0 -0
0 0 0 0 0 0 0 0 0 0 0 0 0 0 0 0 0 0 0 0 0 0 0 0 0 0 0 0 0 0 0 0 0 0 0 0 0 0 0 0 0 0 -0 -0 0 0 0 0 -0 0 0 0 0 0
0 0 0 0 0 0 0 0 0 0 0 0 0 0 0 0 0 0 0 0 0 0 0 0 0 0 0 0 0 0 0 0 0 0 0 0 0 0 0 0 0 -0 -0 -0 -0 0 0 0 -0 0 0 0 0 -0
0 0 0 0 0 0 0 0 0 0 0 0 0 0 0 0 0 0 0 0 0 0 0 0 0 0 0 0 0 0 0 0 0 0 0 0 0 0 0 0 0 0 -0 -0 0 0 0 0 -0 -0 0 0 -0 0
0 0 0 0 0 0 0 0 0 0 0 0 0 0 0 0 0 0 0 0 0 0 0 0 0 0 0 0 0 0 0 0 0 0 0 0 0 0 0 0 0 0 0 0 0 0 0 -0 -0 -0 -0 0 0 0
0 0 0 0 0 0 0 0 0 0 0 0 -0 0 0 0 0 0 0 0 0 0 0 0 0 0 0 0 0 0 0 0 0 0 0 0 0 0 0 0 0 0 0 0 0 0 0 -0 -0 -0 0 0 0 0
0 0 0 0 0 0 0 0 0 0 0 0 0 0 0 0 0 0 0 0 0 0 0 0 0 0 0 0 0 0 0 0 0 0 0 0 0 0 0 0 0 0 0 0 0 0 -0 0 -0 -0 -0 -0 0 0
0 0 0 0 0 0 0 0 0 0 0 0 0 0 0 0 0 0 0 0 0 0 0 0 0 0 0 0 0 0 0 0 0 0 0 0 0 0 0 0 0 0 0 0 0 0 0 0 0 -0 -0 0 0 0
0 0 0 0 0 0 0 0 0 0 0 0 0 0 0 0 0 0 0 0 0 0 0 0 0 0 0 0 0 0 0 0 0 0 0 0 0 0 0 0 0 0 0 0 0 0 0 0 0 -0 0 0 0 0
0 0 0 0 0 0 0 0 0 0 0 0 0 0 0 0 -0 0 0 0 0 0 0 0 0 0 0 0 0 0 0 0 0 0 0 0 0 0 0 0 0 0 0 0 0 0 0 0 0 -0 0 0 0 0
0 0 0 0 0 0 0 0 0 0 0 0 0 0 0 0 0 0 0 0 0 0 0 0 0 0 0 0 0 0 0 0 0 0 0 0 0 0 0 0 0 0 0 0 0 0 0 0 0 -0 -0 0 0 0
0 0 0 0 0 0 0 0 0 0 0 0 0 0 0 0 0 0 0 0 0 0 0 0 0 0 0 0 0 0 0 0 0 0 0 0 0 0 0 0 0 0 0 0 0 0 0 0 0 0 -0 0 0 0
0 0 0 0 0 0 0 0 0 0 0 0 0 0 0 0 0 0 0 0 0 0 0 0 0 0 0 0 0 0 0 0 0 0 0 0 0 0 0 0 0 0 0 0 0 0 0 0 0 0 -0 -0 0 0
0 0 0 0 0 0 0 0 0 0 0 0 0 0 0 0 0 0 0 0 0 0 0 0 0 0 0 0 0 0 0 0 0 0 0 0 0 0 0 0 0 0 0 0 0 0 0 0 0 0 -0 -0 0 0
0 0 0 0 0 0 0 0 0 0 0 0 0 0 0 0 0 0 0 0 0 0 0 0 0 0 0 0 0 0 0 0 0 0 0 0 0 0 0 0 0 0 0 0 0 0 0 0 0 0 -0 0 0 0
0 0 0 0 0 0 0 0 0 0 0 0 0 0 0 0 0 0 0 0 0 0 0 0 0 0 0 0 0 -0 0 0 0 0 0 0 0 0 0 0 0 0 0 0 0 0 0 0 0 -0 -0 0 0 0
0 0 0 0 0 0 0 0 0 0 0 0 0 0 0 0 0 0 0 0 0 0 0 0 0 0 0 0 0 0 0 0 0 0 0 0 0 0 0 0 0 0 0 0 0 0 0 -0 -0 -0 -0 -0 0 0
0 0 0 0 0 -0 0 0 0 0 0 0 0 0 0 0 0 0 0 0 0 0 0 0 0 0 0 0 0 0 0 0 0 0 0 0 0 0 0 0 0 0 0 0 0 0 -0 -0 -0 -0 -0 0 0 0
0 0 0 0 -0 0 0 0 0 0 0 0 0 0 0 0 0 0 0 0 0 0 0 0 0 0 0 0 0 0 0 0 0 0 0 0 0 0 0 0 0 0 0 0 0 0 0 0 0 -0 0 0 0 0
0 0 0 -0 -0 -0 -0 -0 0 0 0 0 0 0 0 0 0 0 0 0 0 0 0 0 0 0 0 0 0 0 0 0 0 0 0 0 0 0 0 0 0 0 0 0 0 0 0 0 0 -0 -0 -0 0 0
0 0 0 -0 0 0 0 0 0 0 0 0 0 0 0 0 0 0 0 0 0 0 0 0 0 0 0 0 0 0 0 0 0 0 0 0 0 0 0 0 0 0 0 0 0 0 0 0 0 0 -0 -0 -0 0
0 0 0 0 0 -0 0 0 0 0 0 0 0 0 0 0 0 0 0 0 0 0 0 0 0 0 0 0 0 0 0 0 0 0 0 0 0 0 0 0 0 0 0 0 0 0 0 0 0 0 0 0 -0 -0
Wind_Speed_500mb
37 34 40 43 40 30 31 33 35 36 34 32 29 22 16 11 10 14 13 13 6 2 3 3 4 4 4 5 4 7 3 6 3 2 1 3 3 3 2 2 1 3 3 2 4 5 2 7 2 5 5 7 8 9
37 37 31 25 25 27 30 32 32 32 31 29 29 20 14 12 12 17 16 14 9 6 7 8 10 11 8 3 4 6 1 1 2 3 0 1 4 3 1 1 1 1 4 4 4 5 2 3 3 10 6 9 7 8
22 17 17 21 26 27 27 27 26 27 28 26 26 18 14 15 16 21 21 12 4 7 17 19 12 16 13 12 6 1 3 1 2 2 1 1 4 1 2 2 3 3 4 3 3 5 3 7 13 12 12 13 11 10
20 17 12 19 16 16 19 21 19 19 22 24 22 14 15 18 20 24 25 12 7 4 4 4 6 7 14 15 13 4 2 2 3 1 1 1 3 4 1 2 4 2 9 4 4 6 7 8 9 14 13 10 12 13
17 13 11 6 7 13 16 18 16 16 17 25 20 11 17 22 23 23 23 9 11 8 3 11 11 13 12 17 17 10 1 2 1 4 5 2 1 4 2 3 6 9 4 4 4 2 4 6 23 15 9 8 10 10
17 14 5 2 7 13 18 17 16 15 17 19 15 9 21 25 24 28 10 18 14 7 5 5 7 9 17 19 20 13 6 3 2 3 2 3 4 2 3 3 2 5 2 6 4 13 7 24 22 12 7 7 10 12
13 8 6 5 12 17 20 17 12 11 13 13 6 21 26 27 29 11 7 2 25 12 4 7 7 5 13 20 21 14 10 6 6 3 3 2 4 4 2 5 5 6 7 11 19 20 16 21 11 13 6 8 10 15
14 8 8 13 18 21 19 16 9 6 8 8 20 26 29 22 26 13 9 8 18 16 5 4 5 2 14 8 10 15 8 10 6 2 3 3 4 2 5 6 8 13 21 26 17 4 4 18 19 14 6 8 13 15
17 14 12 13 17 18 11 5 1 4 5 23 27 28 23 16 17 20 9 3 13 11 3 5 4 5 16 8 7 8 10 5 5 5 3 4 3 6 7 12 21 27 19 24 14 14 16 16 18 11 5 7 16 19
16 12 10 10 16 8 8 5 7 7 21 36 33 12 9 18 18 17 10 5 8 15 10 8 8 4 13 8 7 7 3 2 5 3 4 5 5 15 8 7 11 28 18 25 21 16 17 18 15 10 7 14 21 27
15 12 7 7 11 3 2 10 11 22 30 25 8 7 19 27 17 11 8 7 6 6 12 10 21 8 14 8 7 6 4 3 5 5 4 4 4 1 7 15 16 31 22 22 9 4 11 7 12 11 12 24 28 30
15 12 6 2 4 2 1 14 18 25 18 17 12 20 25 9 5 4 4 3 8 7 8 9 13 17 10 10 6 7 3 4 4 5 4 4 1 8 1 12 25 33 25 21 8 4 5 7 9 11 23 32 35 25
16 16 9 2 2 2 3 15 13 14 24 35 9 9 3 3 6 10 13 8 7 12 15 13 12 12 10 9 6 5 6 5 5 5 3 2 1 4 14 26 35 27 22 14 9 7 5 7 10 19 35 40 31 21
12 14 10 3 1 4 5 8 13 22 15 4 8 8 8 7 10 11 16 7 10 10 22 24 11 6 7 6 3 6 3 4 5 6 4 4 0 17 27 31 32 30 20 14 9 6 6 9 19 34 39 36 28 20
6 9 8 2 2 3 2 12 20 19 4 1 2 7 12 17 15 13 17 13 10 9 21 18 10 5 4 6 1 5 6 6 5 5 2 6 11 29 35 36 32 26 20 13 9 6 8 14 27 38 40 32 25 16
6 10 8 5 3 2 3 14 14 18 4 3 5 8 8 8 11 9 13 11 12 19 20 10 9 4 3 3 6 6 7 6 4 1 6 7 30 38 38 34 30 25 18 12 9 7 10 20 30 39 37 29 22 13
12 11 11 9 5 4 8 14 10 10 10 7 8 14 21 18 11 1 7 7 19 13 4 9 8 2 4 4 5 4 3 3 4 6 9 10 38 43 38 33 28 21 14 9 6 8 16 25 34 39 34 26 19 9
12 12 11 9 6 7 8 12 7 8 9 12 8 5 13 10 9 10 11 13 10 16 12 3 9 5 4 7 4 4 1 2 6 8 9 14 36 39 36 31 26 18 11 6 5 7 15 25 36 38 32 23 17 9
8 8 11 9 8 10 5 4 4 4 8 6 7 7 3 3 11 7 7 18 18 21 20 9 5 3 3 2 6 8 8 8 7 7 7 15 32 37 35 29 25 19 10 6 5 8 17 26 37 39 32 23 19 13
6 11 9 11 18 7 4 4 5 4 3 1 6 8 9 9 9 14 14 16 15 8 10 6 3 3 6 12 12 10 9 9 11 10 5 17 28 32 32 30 26 21 15 10 5 6 22 30 38 39 34 25 22 16
14 14 6 10 10 4 2 1 4 2 4 4 4 0 6 22 11 6 10 11 8 5 4 5 5 11 10 7 4 3 5 7 9 6 4 9 23 31 32 31 28 21 15 12 7 6 16 29 35 42 38 31 24 15
16 13 12 6 3 3 3 2 2 1 4 6 10 5 4 2 4 5 6 5 4 4 6 5 6 6 5 5 1 3 6 9 14 13 10 8 14 28 35 36 35 27 24 16 10 8 9 26 32 43 41 34 27 19
17 12 2 2 1 2 5 3 3 3 6 4 13 8 5 4 5 10 3 2 3 5 7 9 10 11 11 12 9 11 15 19 20 23 24 22 19 24 38 41 39 30 28 20 13 7 5 12 31 43 42 38 32 21
11 4 2 1 2 1 2 6 5 5 8 2 3 5 3 3 8 2 1 4 8 9 10 8 8 13 14 14 13 18 25 31 30 28 27 28 29 32 40 45 42 33 22 17 12 8 4 4 24 42 45 41 37 27
2 1 2 3 2 3 1 2 2 3 3 2 3 4 3 4 2 1 2 4 6 6 4 7 9 11 10 10 15 19 29 42 25 24 24 28 33 33 36 43 36 36 27 19 15 11 9 8 13 37 48 44 44 39
4 1 1 2 1 1 4 2 3 3 3 3 5 4 3 2 1 3 3 3 3 2 4 6 13 16 10 8 9 19 22 10 14 17 19 27 34 36 39 51 47 34 30 23 17 15 12 12 10 32 46 45 47 45
4 4 3 2 3 3 2 4 4 2 2 2 4 3 2 1 3 3 4 3 1 3 4 5 4 17 12 6 7 21 8 18 12 10 15 24 24 25 36 52 44 39 30 23 17 11 7 7 6 27 40 45 46 40
2 3 4 8 3 2 3 2 1 1 2 3 5 3 4 6 4 5 7 9 9 6 5 2 4 7 11 9 8 12 14 6 25 19 18 23 28 31 31 31 30 35 33 25 21 18 9 4 2 18 37 46 47 39
3 3 4 2 1 2 3 3 2 4 5 8 4 5 5 6 5 5 5 6 10 15 14 11 9 10 9 10 9 10 11 11 13 11 17 12 20 27 31 33 35 32 28 29 29 25 16 7 6 10 27 42 49 43
3 4 3 2 2 1 2 3 3 6 9 11 10 10 12 15 16 17 18 17 15 14 16 16 13 10 11 13 14 10 8 8 12 7 6 7 6 16 18 18 20 22 26 32 34 32 29 21 14 12 18 36 51 54
5 3 3 4 4 4 7 8 9 10 12 12 17 18 19 14 15 15 15 17 18 17 18 17 13 16 14 12 15 16 18 17 15 16 11 13 15 14 15 17 16 15 15 16 21 35 37 32 24 16 14 16 26 53
5 6 4 4 4 7 6 3 3 4 8 8 6 4 4 4 3 4 5 6 13 24 22 20 17 16 15 11 8 8 10 13 13 18 24 25 22 21 25 27 27 25 22 19 19 17 31 41 38 29 20 16 14 17
7 8 7 4 2 1 2 2 2 2 3 4 4 2 3 3 4 5 9 10 6 6 11 17 18 21 22 23 23 22 25 27 28 26 24 24 28 29 29 30 35 35 33 32 27 23 21 34 44 41 30 21 15 13
Wind_Direction_500mb
243 241 244 257 268 273 277 284 290 294 296 298 298 302 295 283 250 202 188 194 187 311 270 187 108 83 55 46 38 346 289 33 22 96 252 133 223 91 202 88 17 348 155 200 194 224 93 39 170 276 65 77 77 52
235 242 248 250 257 266 276 284 288 290 293 294 293 287 274 256 226 199 179 191 217 249 259 272 265 253 263 241 49 38 75 287 36 68 129 219 182 198 295 320 206 271 288 349 270 44 57 7 62 124 118 113 75 54
227 219 223 240 258 271 277 278 281 288 296 295 293 279 248 233 218 196 175 180 206 292 293 273 265 233 239 220 179 22 335 124 78 54 174 37 266 232 226 219 197 188 180 253 242 144 144 127 131 121 100 87 65 37
192 199 231 248 269 273 280 285 292 297 304 305 301 276 228 209 207 192 169 162 194 291 295 286 210 198 217 206 183 173 16 161 212 279 225 265 270 210 9 5 269 30 172 162 254 189 159 175 149 131 105 71 43 32
176 193 228 248 300 308 301 295 296 291 297 307 306 260 203 194 187 182 166 175 227 215 303 302 283 219 203 189 188 189 160 52 207 204 207 217 208 193 108 238 239 186 172 225 20 58 97 148 167 146 107 73 35 69
181 194 216 211 315 319 320 308 293 288 294 301 305 189 175 172 159 145 173 217 217 222 299 295 272 209 201 202 200 199 216 257 221 215 230 241 229 269 221 239 230 182 267 219 32 138 118 142 151 143 110 64 48 107
169 193 264 284 319 315 319 314 285 270 292 292 212 161 154 149 155 142 157 170 198 200 261 290 298 220 196 191 194 200 222 224 215 205 229 244 174 196 216 235 85 135 126 129 124 120 113 149 162 153 111 60 78 124
181 201 253 288 305 315 315 308 282 257 265 270 154 145 145 162 174 167 63 44 167 188 272 264 267 233 181 176 176 202 203 200 212 211 220 216 154 203 247 225 155 148 137 136 138 107 155 172 159 152 118 71 116 123
195 219 258 288 311 321 331 336 49 192 220 143 134 147 159 145 173 196 209 335 182 202 231 203 237 182 173 168 161 177 191 198 198 216 177 203 147 223 245 196 184 171 155 163 138 121 134 158 158 153 123 112 138 137
214 234 270 301 328 336 19 50 121 150 143 140 146 143 142 166 164 175 198 235 214 207 230 236 206 206 178 157 149 161 204 166 205 120 145 221 245 247 242 219 212 184 170 168 148 143 163 174 179 173 151 146 145 146
217 229 272 311 336 6 35 194 177 170 163 153 147 157 157 169 163 184 213 218 200 225 213 227 197 171 188 189 149 193 165 168 219 136 244 186 248 216 301 232 207 185 173 172 171 131 167 167 183 181 156 152 146 145
210 210 213 263 357 30 225 182 179 181 172 143 129 137 133 161 168 214 216 215 217 239 206 196 207 189 170 175 174 170 182 191 200 146 218 221 116 321 342 156 158 169 176 177 166 139 161 154 166 163 153 150 146 140
192 190 179 210 345 121 228 187 163 183 160 141 131 139 160 179 189 201 203 218 235 198 187 176 185 161 162 171 110 161 180 191 135 198 226 265 335 109 134 143 153 164 164 168 146 127 135 151 152 150 150 149 144 134
188 190 179 197 273 149 138 171 197 164 186 127 147 157 210 187 229 205 211 214 245 231 177 161 162 190 162 123 127 177 101 174 177 205 208 96 215 154 145 147 150 145 147 133 120 121 136 145 145 146 151 150 145 130
171 177 181 185 165 176 153 165 167 176 178 246 199 212 224 239 251 246 237 237 254 222 168 142 121 147 78 121 132 117 166 199 226 191 104 356 176 161 151 146 143 138 130 123 113 111 137 144 147 152 155 151 146 134
139 151 159 143 101 64 149 141 157 176 188 251 238 276 258 260 257 223 215 218 212 201 173 116 91 106 175 143 171 196 179 193 142 143 338 329 169 164 157 151 143 138 132 113 113 111 138 148 154 159 157 154 154 142
144 150 152 153 160 174 187 159 135 148 200 222 228 266 277 279 268 156 146 129 143 162 84 109 129 133 124 153 189 203 173 97 339 357 1 145 170 170 165 158 153 150 139 110 107 122 151 154 160 163 162 159 160 166
135 148 159 160 155 121 138 187 157 183 220 230 242 281 305 269 153 122 140 149 126 127 157 104 113 122 152 172 177 155 182 60 38 27 53 144 168 174 173 167 160 158 149 136 134 142 163 165 168 168 166 162 154 140
125 153 166 169 171 158 146 144 164 238 227 258 234 294 206 110 122 95 79 112 146 148 124 108 114 130 131 138 115 122 96 74 43 33 84 150 170 178 179 176 172 170 165 157 140 152 169 170 174 172 169 165 154 147
124 145 151 152 156 145 150 174 201 260 297 63 161 3 134 134 117 134 112 103 95 67 60 59 92 140 130 122 114 97 77 50 39 33 113 165 173 181 184 184 182 182 176 165 144 157 180 175 176 176 173 166 155 155
126 134 126 105 94 108 132 161 191 255 327 95 153 45 131 166 185 126 78 76 60 61 102 116 138 144 136 134 107 34 0 360 10 23 43 182 180 183 188 190 188 186 179 165 143 136 180 187 184 179 177 173 162 161
139 126 98 33 48 100 102 79 112 335 348 80 155 175 167 122 113 88 103 56 80 94 128 130 142 160 181 194 235 349 337 293 277 280 276 253 214 201 190 187 187 186 177 170 150 129 160 190 189 186 183 181 173 176
134 129 323 338 353 148 149 134 143 53 17 130 172 153 148 171 167 147 96 179 203 213 230 243 233 227 232 234 254 283 302 306 283 264 257 253 238 216 206 192 193 189 184 181 173 157 148 192 198 192 189 188 186 196
128 152 206 301 360 75 180 198 207 180 177 216 143 108 87 94 138 101 230 232 222 244 269 274 222 228 231 240 263 287 306 311 285 266 245 243 230 217 205 198 191 193 184 189 202 211 219 227 204 196 194 194 188 191
120 82 34 346 341 344 344 117 144 135 106 119 123 115 110 127 136 223 266 260 237 240 266 244 229 213 220 257 285 288 302 306 271 250 241 232 217 206 200 193 192 196 189 206 234 242 240 246 219 198 197 198 192 200
76 21 94 343 349 330 0 81 53 65 66 75 67 107 113 113 205 253 250 291 232 264 308 277 246 224 228 261 319 333 338 298 237 227 232 214 205 199 194 182 185 192 198 207 234 259 255 244 235 197 192 195 197 209
45 22 340 264 299 341 82 72 82 60 90 118 139 131 145 179 239 237 246 217 211 297 328 332 204 200 222 216 354 8 27 66 130 174 169 182 179 189 197 188 191 200 205 214 228 237 256 244 240 194 188 193 198 206
317 339 349 342 350 36 50 57 82 165 131 149 132 187 202 204 227 191 199 200 197 207 224 220 181 188 196 226 306 337 342 149 163 131 123 165 188 188 188 199 199 189 195 217 201 196 203 195 173 188 189 188 194 200
326 330 343 311 171 209 227 209 210 196 185 187 214 215 236 222 231 228 242 247 243 231 226 231 236 235 236 253 271 296 323 349 165 44 54 77 120 131 168 185 198 200 183 176 184 187 182 171 135 143 185 188 188 197
8 358 329 311 284 279 227 214 236 243 239 238 250 265 270 275 276 275 278 267 246 245 237 227 227 225 239 246 251 255 275 302 308 314 39 13 130 140 147 154 154 159 177 189 190 194 196 197 194 166 166 191 196 196
301 297 258 236 256 254 273 273 274 278 278 278 281 279 286 284 287 283 256 239 229 230 229 231 255 270 277 256 245 240 233 234 226 256 254 250 238 204 189 188 191 193 190 191 195 202 202 203 208 200 181 182 200 208
250 236 240 247 244 283 290 287 298 336 340 329 310 288 312 309 302 324 323 296 252 235 230 239 265 257 232 225 222 230 222 225 224 219 228 237 241 229 218 214 214 216 215 215 218 214 208 211 209 209 204 193 196 209
268 269 262 266 298 311 243 292 315 298 315 327 303 293 326 318 332 358 344 338 298 262 244 244 246 250 252 253 256 259 261 258 253 247 242 238 236 234 231 227 223 220 220 223 229 229 222 213 210 207 207 207 204 203
Wind_Speed_850mb
37 34 40 43 40 30 31 33 35 36 34 32 29 22 16 11 10 14 13 13 6 2 3 3 4 4 4 5 4 7 3 6 3 2 1 3 3 3 2 2 1 3 3 2 4 5 2 7 2 5 5 7 8 9
37 37 31 25 25 27 30 32 32 32 31 29 29 20 14 12 12 17 16 14 9 6 7 8 10 11 8 3 4 6 1 1 2 3 0 1 4 3 1 1 1 1 4 4 4 5 2 3 3 10 6 9 7 8
22 17 17 21 26 27 27 27 26 27 28 26 26 18 14 15 16 21 21 12 4 7 17 19 12 16 13 12 6 1 3 1 2 2 1 1 4 1 2 2 3 3 4 3 3 5 3 7 13 12 12 13 11 10
20 17 12 19 16 16 19 21 19 19 22 24 22 14 15 18 20 24 25 12 7 4 4 4 6 7 14 15 13 4 2 2 3 1 1 1 3 4 1 2 4 2 9 4 4 6 7 8 9 14 13 10 12 13
17 13 11 6 7 13 16 18 16 16 17 25 20 11 17 22 23 23 23 9 11 8 3 11 11 13 12 17 17 10 1 2 1 4 5 2 1 4 2 3 6 9 4 4 4 2 4 6 23 15 9 8 10 10
17 14 5 2 7 13 18 17 16 15 17 19 15 9 21 25 24 28 10 18 14 7 5 5 7 9 17 19 20 13 6 3 2 3 2 3 4 2 3 3 2 5 2 6 4 13 7 24 22 12 7 7 10 12
13 8 6 5 12 17 20 17 12 11 13 13 6 21 26 27 29 11 7 2 25 12 4 7 7 5 13 20 21 14 10 6 6 3 3 2 4 4 2 5 5 6 7 11 19 20 16 21 11 13 6 8 10 15
14 8 8 13 18 21 19 16 9 6 8 8 20 26 29 22 26 13 9 8 18 16 5 4 5 2 14 8 10 15 8 10 6 2 3 3 4 2 5 6 8 13 21 26 17 4 4 18 19 14 6 8 13 15
17 14 12 13 17 18 11 5 1 4 5 23 27 28 23 16 17 20 9 3 13 11 3 5 4 5 16 8 7 8 10 5 5 5 3 4 3 6 7 12 21 27 19 24 14 14 16 16 18 11 5 7 16 19
16 12 10 10 16 8 8 5 7 7 21 36 33 12 9 18 18 17 10 5 8 15 10 8 8 4 13 8 7 7 3 2 5 3 4 5 5 15 8 7 11 28 18 25 21 16 17 18 15 10 7 14 21 27
15 12 7 7 11 3 2 10 11 22 30 25 8 7 19 27 17 11 8 7 6 6 12 10 21 8 14 8 7 6 4 3 5 5 4 4 4 1 7 15 16 31 22 22 9 4 11 7 12 11 12 24 28 30
15 12 6 2 4 2 1 14 18 25 18 17 12 20 25 9 5 4 4 3 8 7 8 9 13 17 10 10 6 7 3 4 4 5 4 4 1 8 1 12 25 33 25 21 8 4 5 7 9 11 23 32 35 25
16 16 9 2 2 2 3 15 13 14 24 35 9 9 3 3 6 10 13 8 7 12 15 13 12 12 10 9 6 5 6 5 5 5 3 2 1 4 14 26 35 27 22 14 9 7 5 7 10 19 35 40 31 21
12 14 10 3 1 4 5 8 13 22 15 4 8 8 8 7 10 11 16 7 10 10 22 24 11 6 7 6 3 6 3 4 5 6 4 4 0 17 27 31 32 30 20 14 9 6 6 9 19 34 39 36 28 20
6 9 8 2 2 3 2 12 20 19 4 1 2 7 12 17 15 13 17 13 10 9 21 18 10 5 4 6 1 5 6 6 5 5 2 6 11 29 35 36 32 26 20 13 9 6 8 14 27 38 40 32 25 16
6 10 8 5 3 2 3 14 14 18 4 3 5 8 8 8 11 9 13 11 12 19 20 10 9 4 3 3 6 6 7 6 4 1 6 7 30 38 38 34 30 25 18 12 9 7 10 20 30 39 37 29 22 13
12 11 11 9 5 4 8 14 10 10 10 7 8 14 21 18 11 1 7 7 19 13 4 9 8 2 4 4 5 4 3 3 4 6 9 10 38 43 38 33 28 21 14 9 6 8 16 25 34 39 34 26 19 9
12 12 11 9 6 7 8 12 7 8 9 12 8 5 13 10 9 10 11 13 10 16 12 3 9 5 4 7 4 4 1 2 6 8 9 14 36 39 36 31 26 18 11 6 5 7 15 25 36 38 32 23 17 9
8 8 11 9 8 10 5 4 4 4 8 6 7 7 3 3 11 7 7 18 18 21 20 9 5 3 3 2 6 8 8 8 7 7 7 15 32 37 35 29 25 19 10 6 5 8 17 26 37 39 32 23 19 13
6 11 9 11 18 7 4 4 5 4 3 1 6 8 9 9 9 14 14 16 15 8 10 6 3 3 6 12 12 10 9 9 11 10 5 17 28 32 32 30 26 21 15 10 5 6 22 30 38 39 34 25 22 16
14 14 6 10 10 4 2 1 4 2 4 4 4 0 6 22 11 6 10 11 8 5 4 5 5 11 10 7 4 3 5 7 9 6 4 9 23 31 32 31 28 21 15 12 7 6 16 29 35 42 38 31 24 15
16 13 12 6 3 3 3 2 2 1 4 6 10 5 4 2 4 5 6 5 4 4 6 5 6 6 5 5 1 3 6 9 14 13 10 8 14 28 35 36 35 27 24 16 10 8 9 26 32 43 41 34 27 19
17 12 2 2 1 2 5 3 3 3 6 4 13 8 5 4 5 10 3 2 3 5 7 9 10 11 11 12 9 11 15 19 20 23 24 22 19 24 38 41 39 30 28 20 13 7 5 12 31 43 42 38 32 21
11 4 2 1 2 1 2 6 5 5 8 2 3 5 3 3 8 2 1 4 8 9 10 8 8 13 14 14 13 18 25 31 30 28 27 28 29 32 40 45 42 33 22 17 12 8 4 4 24 42 45 41 37 27
2 1 2 3 2 3 1 2 2 3 3 2 3 4 3 4 2 1 2 4 6 6 4 7 9 11 10 10 15 19 29 42 25 24 24 28 33 33 36 43 36 36 27 19 15 11 9 8 13 37 48 44 44 39
4 1 1 2 1 1 4 2 3 3 3 3 5 4 3 2 1 3 3 3 3 2 4 6 13 16 10 8 9 19 22 10 14 17 19 27 34 36 39 51 47 34 30 23 17 15 12 12 10 32 46 45 47 45
4 4 3 2 3 3 2 4 4 2 2 2 4 3 2 1 3 3 4 3 1 3 4 5 4 17 12 6 7 21 8 18 12 10 15 24 24 25 36 52 44 39 30 23 17 11 7 7 6 27 40 45 46 40
2 3 4 8 3 2 3 2 1 1 2 3 5 3 4 6 4 5 7 9 9 6 5 2 4 7 11 9 8 12 14 6 25 19 18 23 28 31 31 31 30 35 33 25 21 18 9 4 2 18 37 46 47 39
3 3 4 2 1 2 3 3 2 4 5 8 4 5 5 6 5 5 5 6 10 15 14 11 9 10 9 10 9 10 11 11 13 11 17 12 20 27 31 33 35 32 28 29 29 25 16 7 6 10 27 42 49 43
3 4 3 2 2 1 2 3 3 6 9 11 10 10 12 15 16 17 18 17 15 14 16 16 13 10 11 13 14 10 8 8 12 7 6 7 6 16 18 18 20 22 26 32 34 32 29 21 14 12 18 36 51 54
5 3 3 4 4 4 7 8 9 10 12 12 17 18 19 14 15 15 15 17 18 17 18 17 13 16 14 12 15 16 18 17 15 16 11 13 15 14 15 17 16 15 15 16 21 35 37 32 24 16 14 16 26 53
5 6 4 4 4 7 6 3 3 4 8 8 6 4 4 4 3 4 5 6 13 24 22 20 17 16 15 11 8 8 10 13 13 18 24 25 22 21 25 27 27 25 22 19 19 17 31 41 38 29 20 16 14 17
7 8 7 4 2 1 2 2 2 2 3 4 4 2 3 3 4 5 9 10 6 6 11 17 18 21 22 23 23 22 25 27 28 26 24 24 28 29 29 30 35 35 33 32 27 23 21 34 44 41 30 21 15 13
Wind_Direction_850mb
243 241 244 257 268 273 277 284 290 294 296 298 298 302 295 283 250 202 188 194 187 311 270 187 108 83 55 46 38 346 289 33 22 96 252 133 223 91 202 88 17 348 155 200 194 224 93 39 170 276 65 77 77 52
235 242 248 250 257 266 276 284 288 290 293 294 293 287 274 256 226 199 179 191 217 249 259 272 265 253 263 241 49 38 75 287 36 68 129 219 182 198 295 320 206 271 288 349 270 44 57 7 62 124 118 113 75 54
227 219 223 240 258 271 277 278 281 288 296 295 293 279 248 233 218 196 175 180 206 292 293 273 265 233 239 220 179 22 335 124 78 54 174 37 266 232 226 219 197 188 180 253 242 144 144 127 131 121 100 87 65 37
192 199 231 248 269 273 280 285 292 297 304 305 301 276 228 209 207 192 169 162 194 291 295 286 210 198 217 206 183 173 16 161 212 279 225 265 270 210 9 5 269 30 172 162 254 189 159 175 149 131 105 71 43 32
176 193 228 248 300 308 301 295 296 291 297 307 306 260 203 194 187 182 166 175 227 215 303 302 283 219 203 189 188 189 160 52 207 204 207 217 208 193 108 238 239 186 172 225 20 58 97 148 167 146 107 73 35 69
181 194 216 211 315 319 320 308 293 288 294 301 305 189 175 172 159 145 173 217 217 222 299 295 272 209 201 202 200 199 216 257 221 215 230 241 229 269 221 239 230 182 267 219 32 138 118 142 151 143 110 64 48 107
169 193 264 284 319 315 319 314 285 270 292 292 212 161 154 149 155 142 157 170 198 200 261 290 298 220 196 191 194 200 222 224 215 205 229 244 174 196 216 235 85 135 126 129 124 120 113 149 162 153 111 60 78 124
181 201 253 288 305 315 315 308 282 257 265 270 154 145 145 162 174 167 63 44 167 188 272 264 267 233 181 176 176 202 203 200 212 211 220 216 154 203 247 225 155 148 137 136 138 107 155 172 159 152 118 71 116 123
195 219 258 288 311 321 331 336 49 192 220 143 134 147 159 145 173 196 209 335 182 202 231 203 237 182 173 168 161 177 191 198 198 216 177 203 147 223 245 196 184 171 155 163 138 121 134 158 158 153 123 112 138 137
214 234 270 301 328 336 19 50 121 150 143 140 146 143 142 166 164 175 198 235 214 207 230 236 206 206 178 157 149 161 204 166 205 120 145 221 245 247 242 219 212 184 170 168 148 143 163 174 179 173 151 146 145 146
217 229 272 311 336 6 35 194 177 170 163 153 147 157 157 169 163 184 213 218 200 225 213 227 197 171 188 189 149 193 165 168 219 136 244 186 248 216 301 232 207 185 173 172 171 131 167 167 183 181 156 152 146 145
210 210 213 263 357 30 225 182 179 181 172 143 129 137 133 161 168 214 216 215 217 239 206 196 207 189 170 175 174 170 182 191 200 146 218 221 116 321 342 156 158 169 176 177 166 139 161 154 166 163 153 150 146 140
192 190 179 210 345 121 228 187 163 183 160 141 131 139 160 179 189 201 203 218 235 198 187 176 185 161 162 171 110 161 180 191 135 198 226 265 335 109 134 143 153 164 164 168 146 127 135 151 152 150 150 149 144 134
188 190 179 197 273 149 138 171 197 164 186 127 147 157 210 187 229 205 211 214 245 231 177 161 162 190 162 123 127 177 101 174 177 205 208 96 215 154 145 147 150 145 147 133 120 121 136 145 145 146 151 150 145 130
171 177 181 185 165 176 153 165 167 176 178 246 199 212 224 239 251 246 237 237 254 222 168 142 121 147 78 121 132 117 166 199 226 191 104 356 176 161 151 146 143 138 130 123 113 111 137 144 147 152 155 151 146 134
139 151 159 143 101 64 149 141 157 176 188 251 238 276 258 260 257 223 215 218 212 201 173 116 91 106 175 143 171 196 179 193 142 143 338 329 169 164 157 151 143 138 132 113 113 111 138 148 154 159 157 154 154 142
144 150 152 153 160 174 187 159 135 148 200 222 228 266 277 279 268 156 146 129 143 162 84 109 129 133 124 153 189 203 173 97 339 357 1 145 170 170 165 158 153 150 139 110 107 122 151 154 160 163 162 159 160 166
135 148 159 160 155 121 138 187 157 183 220 230 242 281 305 269 153 122 140 149 126 127 157 104 113 122 152 172 177 155 182 60 38 27 53 144 168 174 173 167 160 158 149 136 134 142 163 165 168 168 166 162 154 140
125 153 166 169 171 158 146 144 164 238 227 258 234 294 206 110 122 95 79 112 146 148 124 108 114 130 131 138 115 122 96 74 43 33 84 150 170 178 179 176 172 170 165 157 140 152 169 170 174 172 169 165 154 147
124 145 151 152 156 145 150 174 201 260 297 63 161 3 134 134 117 134 112 103 95 67 60 59 92 140 130 122 114 97 77 50 39 33 113 165 173 181 184 184 182 182 176 165 144 157 180 175 176 176 173 166 155 155
126 134 126 105 94 108 132 161 191 255 327 95 153 45 131 166 185 126 78 76 60 61 102 116 138 144 136 134 107 34 0 360 10 23 43 182 180 183 188 190 188 186 179 165 143 136 180 187 184 179 177 173 162 161
139 126 98 33 48 100 102 79 112 335 348 80 155 175 167 122 113 88 103 56 80 94 128 130 142 160 181 194 235 349 337 293 277 280 276 253 214 201 190 187 187 186 177 170 150 129 160 190 189 186 183 181 173 176
134 129 323 338 353 148 149 134 143 53 17 130 172 153 148 171 167 147 96 179 203 213 230 243 233 227 232 234 254 283 302 306 283 264 257 253 238 216 206 192 193 189 184 181 173 157 148 192 198 192 189 188 186 196
128 152 206 301 360 75 180 198 207 180 177 216 143 108 87 94 138 101 230 232 222 244 269 274 222 228 231 240 263 287 306 311 285 266 245 243 230 217 205 198 191 193 184 189 202 211 219 227 204 196 194 194 188 191
120 82 34 346 341 344 344 117 144 135 106 119 123 115 110 127 136 223 266 260 237 240 266 244 229 213 220 257 285 288 302 306 271 250 241 232 217 206 200 193 192 196 189 206 234 242 240 246 219 198 197 198 192 200
76 21 94 343 349 330 0 81 53 65 66 75 67 107 113 113 205 253 250 291 232 264 308 277 246 224 228 261 319 333 338 298 237 227 232 214 205 199 194 182 185 192 198 207 234 259 255 244 235 197 192 195 197 209
45 22 340 264 299 341 82 72 82 60 90 118 139 131 145 179 239 237 246 217 211 297 328 332 204 200 222 216 354 8 27 66 130 174 169 182 179 189 197 188 191 200 205 214 228 237 256 244 240 194 188 193 198 206
317 339 349 342 350 36 50 57 82 165 131 149 132 187 202 204 227 191 199 200 197 207 224 220 181 188 196 226 306 337 342 149 163 131 123 165 188 188 188 199 199 189 195 217 201 196 203 195 173 188 189 188 194 200
326 330 343 311 171 209 227 209 210 196 185 187 214 215 236 222 231 228 242 247 243 231 226 231 236 235 236 253 271 296 323 349 165 44 54 77 120 131 168 185 198 200 183 176 184 187 182 171 135 143 185 188 188 197
8 358 329 311 284 279 227 214 236 243 239 238 250 265 270 275 276 275 278 267 246 245 237 227 227 225 239 246 251 255 275 302 308 314 39 13 130 140 147 154 154 159 177 189 190 194 196 197 194 166 166 191 196 196
301 297 258 236 256 254 273 273 274 278 278 278 281 279 286 284 287 283 256 239 229 230 229 231 255 270 277 256 245 240 233 234 226 256 254 250 238 204 189 188 191 193 190 191 195 202 202 203 208 200 181 182 200 208
250 236 240 247 244 283 290 287 298 336 340 329 310 288 312 309 302 324 323 296 252 235 230 239 265 257 232 225 222 230 222 225 224 219 228 237 241 229 218 214 214 216 215 215 218 214 208 211 209 209 204 193 196 209
268 269 262 266 298 311 243 292 315 298 315 327 303 293 326 318 332 358 344 338 298 262 244 244 246 250 252 253 256 259 261 258 253 247 242 238 236 234 231 227 223 220 220 223 229 229 222 213 210 207 207 207 204 203